"Pseudo-MPEC" for JhWC1In

Created 2024 Jul 20 20:22:03 UT using Find_Orb

Click here for an explanation of pseudo-MPECs

 
 Astrometry: 
     JhWC1In*!C2024 07 15.38107 23 27 02.95 +17 27 12.6    ~7FKb 21.1 iXNEOCPW84
     JhWC1In !C2024 07 15.38318 23 27 03.31 +17 27 14.9    ~7FKb 21.2 iXNEOCPW84
     JhWC1In !C2024 07 15.38529 23 27 03.64 +17 27 17.1    ~7FKb 21.2 iXNEOCPW84
     JhWC1In !C2024 07 15.38740 23 27 03.99 +17 27 19.4    ~7FKb 21.0 iXNEOCPW84

Station data:
(W84) Cerro Tololo-DECam  (S30.169594 W70.806420)  Chile.  Observer F. Valdes.
    Measurer S. Deen. 4.0-m reflector + CCD.

Orbital elements:  JhWC1In
   Perihelion 2024 Sep 8.19741 +/- 31.8 TT =  4:44:16 (JD 2460561.69741)
Epoch 2024 Jul 15.0 TT = JDT 2460506.5   Earth MOID: 0.0186   Ve: 0.0573
M 302.95169772 +/- 47               (J2000 ecliptic)             AutoNEOCP
n   1.03353224 +/- 0.725            Peri.  331.12296 +/- 70
a   0.96884289 +/- 0.453            Node   131.09731 +/- 39
e   0.8748791 +/- 0.233             Incl.   57.73129 +/- 41
P   0.954/348.313d         H 21.46  G  0.15   U 12.5  SR
q 0.12122245 +/- 0.427    Q 1.81646334 +/- 16.9
From 4 observations 2024 July 15 (9.1 min); mean residual 0".06
Residuals in arcseconds: 
240715 W84  .07-  .01-    240715 W84  .07-  .03-    
240715 W84  .14+  .03+    240715 W84  .00   .01+    

Ephemerides (geocentric):
Date (UTC) HH   RA             Dec           delta  r     elong  mag " sig PA
---- --------  ------------   ------------  ------ ------ -----  --- --------
2024 07 20 20  23 49 35.998   +19 36 46.02  .23151 1.1209 111.2 20.6  59d  78
2024 07 20 21  23 49 51.123   +19 38 06.96  .23066 1.1203 111.2 20.6  59d  78
2024 07 20 22  23 50 06.358   +19 39 28.36  .22981 1.1198 111.2 20.6  59d  78
2024 07 20 23  23 50 21.704   +19 40 50.22  .22897 1.1193 111.2 20.6  59d  78
2024 07 21 00  23 50 37.162   +19 42 12.56  .22812 1.1187 111.1 20.6  59d  78
2024 07 21 01  23 50 52.735   +19 43 35.37  .22727 1.1182 111.1 20.6  59d  78
2024 07 21 02  23 51 08.422   +19 44 58.67  .22642 1.1176 111.1 20.6  60d  78
2024 07 21 03  23 51 24.226   +19 46 22.45  .22557 1.1171 111.1 20.6  60d  78
2024 07 21 04  23 51 40.147   +19 47 46.71  .22472 1.1165 111.0 20.5  60d  78
2024 07 21 05  23 51 56.188   +19 49 11.48  .22388 1.1160 111.0 20.5  60d  78
2024 07 21 06  23 52 12.349   +19 50 36.74  .22303 1.1155 111.0 20.5  60d  78
2024 07 21 07  23 52 28.632   +19 52 02.50  .22218 1.1149 110.9 20.5  60d  78
2024 07 21 08  23 52 45.039   +19 53 28.78  .22134 1.1144 110.9 20.5  60d  78
2024 07 21 09  23 53 01.571   +19 54 55.56  .22049 1.1138 110.9 20.5  60d  78
2024 07 21 10  23 53 18.228   +19 56 22.87  .21964 1.1133 110.8 20.5  61d  78
2024 07 21 11  23 53 35.014   +19 57 50.69  .21880 1.1127 110.8 20.5  61d  78
2024 07 21 12  23 53 51.929   +19 59 19.04  .21795 1.1122 110.8 20.5  61d  78
2024 07 21 13  23 54 08.975   +20 00 47.93  .21711 1.1116 110.8 20.5  61d  78
2024 07 21 14  23 54 26.153   +20 02 17.35  .21626 1.1111 110.7 20.5  61d  78
2024 07 21 15  23 54 43.466   +20 03 47.32  .21542 1.1105 110.7 20.5  61d  78
2024 07 21 16  23 55 00.914   +20 05 17.83  .21457 1.1100 110.7 20.5  61d  78
2024 07 21 17  23 55 18.500   +20 06 48.89  .21373 1.1094 110.6 20.5  61d  78
2024 07 21 18  23 55 36.224   +20 08 20.51  .21289 1.1089 110.6 20.4  61d  78
2024 07 21 19  23 55 54.090   +20 09 52.70  .21204 1.1083 110.5 20.4  61d  78
2024 07 21 20  23 56 12.097   +20 11 25.45  .21120 1.1078 110.5 20.4  61d  78
2024 07 21 21  23 56 30.249   +20 12 58.78  .21036 1.1072 110.5 20.4  61d  78
2024 07 21 22  23 56 48.547   +20 14 32.69  .20951 1.1067 110.4 20.4  61d  78
2024 07 21 23  23 57 06.993   +20 16 07.18  .20867 1.1061 110.4 20.4  61d  78
2024 07 22 00  23 57 25.589   +20 17 42.26  .20783 1.1056 110.4 20.4  61d  78
2024 07 22 01  23 57 44.336   +20 19 17.93  .20699 1.1050 110.3 20.4  62d  78
2024 07 22 02  23 58 03.236   +20 20 54.21  .20615 1.1045 110.3 20.4  62d  78
2024 07 22 03  23 58 22.292   +20 22 31.09  .20531 1.1039 110.2 20.4  62d  78
2024 07 22 04  23 58 41.505   +20 24 08.59  .20447 1.1034 110.2 20.4  62d  78
2024 07 22 05  23 59 00.877   +20 25 46.70  .20363 1.1028 110.2 20.4  62d  78
2024 07 22 06  23 59 20.411   +20 27 25.44  .20279 1.1023 110.1 20.4  62d  78
2024 07 22 07  23 59 40.108   +20 29 04.81  .20195 1.1017 110.1 20.3  62d  78
2024 07 22 08  23 59 59.970   +20 30 44.81  .20111 1.1012 110.0 20.3  62d  78
2024 07 22 09  00 00 20.000   +20 32 25.45  .20027 1.1006 110.0 20.3  62d  78
2024 07 22 10  00 00 40.200   +20 34 06.75  .19943 1.1001 109.9 20.3  62d  78
2024 07 22 11  00 01 00.572   +20 35 48.69  .19859 1.0995 109.9 20.3  62d  78
2024 07 22 12  00 01 21.118   +20 37 31.30  .19776 1.0990 109.9 20.3  62d  78
2024 07 22 13  00 01 41.840   +20 39 14.58  .19692 1.0984 109.8 20.3  62d  78
2024 07 22 14  00 02 02.741   +20 40 58.52  .19608 1.0978 109.8 20.3  62d  78
2024 07 22 15  00 02 23.823   +20 42 43.15  .19525 1.0973 109.7 20.3  62d  77
2024 07 22 16  00 02 45.088   +20 44 28.46  .19441 1.0967 109.7 20.3  62d  77
2024 07 22 17  00 03 06.539   +20 46 14.46  .19358 1.0962 109.6 20.3  62d  77
2024 07 22 18  00 03 28.179   +20 48 01.16  .19274 1.0956 109.6 20.3  62d  77
2024 07 22 19  00 03 50.009   +20 49 48.56  .19191 1.0951 109.5 20.2  62d  77